AirNav   ATP
 
 1572 users online  

58AR Price Coffee Airfield
Bentonville, Arkansas, USA

GOING TO BENTONVILLE?


FAA INFORMATION EFFECTIVE 13 SEPTEMBER 2018

Location

FAA Identifier: 58AR
Lat/Long: 36-24-21.0000N / 094-10-31.0000W
36-24.350000N / 094-10.516667W
36.4058333 / -94.1752778
(estimated)
Elevation: 1067 ft. / 325 m (estimated)
From city: 2 miles NE of BENTONVILLE, AR
Time zone: UTC -5 (UTC -6 during Standard Time)
Zip code: 72712

Airport Operations

Airport use: Private use. Permission required prior to landing
Activation date: 09/2017
Control tower: no
ARTCC: MEMPHIS CENTER
FSS: JONESBORO FLIGHT SERVICE STATION
Attendance: UNATTND
Segmented circle: no

Airport Communications

WX AWOS-3PT at ROG (4 nm SE): 134.375 (479-631-9196)
WX AWOS-3PT at VBT (4 nm SW): 134.975 (479-273-9198)
WX ASOS at XNA (10 nm SW): 119.425 (479-203-0109)
WX AWOS-3 at ASG (14 nm S): 124.675 (479-750-2967)
WX AWOS-3PT at SLG (20 nm SW): 118.375 (479-524-9893)

Nearby radio navigation aids

VOR radial/distance  VOR name  Freq  Var
RZCr341/9.9RAZORBACK VORTAC116.4004E
EOSr147/29.0NEOSHO VOR/DME117.3007E

 
NDB name  Hdg/Dist  Freq  Var  ID
ROGRS233/6.126304ERO .-. ---
SILOAM SPRINGS045/20.028404ESLG ... .-.. --.

Airport Services

Runway Information

Runway 11/29

Dimensions: 2300 x 60 ft. / 701 x 18 m
Surface: turf
RUNWAY 11  RUNWAY 29
Traffic pattern: leftright

Airport Ownership and Management from official FAA records

Ownership: Privately-owned
Owner: PRICE COFFEE, LLC
PO BOX 1860
BENTONVILLE, AR 72712
Phone 479-464-1526
Manager: CHAD COX
3404 CARDINAL LN
BENTONVILLE, AR 72712
Phone 501-732-0658

Instrument Procedures

There are no published instrument procedures at 58AR.

Some nearby airports with instrument procedures:

KROG - Rogers Executive Airport - Carter Field (4 nm SE)
KVBT - Bentonville Municipal Airport/Louise M Thaden Field (4 nm SW)
KXNA - Northwest Arkansas Regional Airport (10 nm SW)
5M5 - Crystal Lake Airport (14 nm W)
KASG - Springdale Municipal Airport (14 nm S)
KSLG - Smith Field Airport (20 nm SW)
 
Loc | Ops | Rwys | IFR | FBO | Links
Com | Nav | Svcs | Stats | Notes


 
Aerial photo
No photo
 
Airport distance calculator
Flying to Price Coffee Airfield? Find the distance to fly.

From to 58AR

Sunrise and sunset
Times for 25-Sep-2018
 Local
(UTC-5)
 Zulu
(UTC)
Morning civil twilight06:4211:42
Sunrise07:0812:08
Sunset19:0900:09
Evening civil twilight19:3400:34

Current date and time
Zulu (UTC)  25-Sep-2018 20:16:18
Local (UTC-5)  25-Sep-2018 15:16:18
 
METAR
KVBT 
4nm SW 
251956Z AUTO 22009G16KT 10SM SCT042 29/19 A2996 RMK AO2 SLP136 T02940194
KROG 
5nm SE 
251958Z 27005KT 10SM FEW045 SCT065 28/19 A2996 RMK AO2 SLP130 T02830189
KXNA 
10nm SW 
251953Z 21008KT 10SM BKN042 28/18 A2995 RMK AO2 SLP126 T02830183
KASG 
15nm S 
251948Z 20012KT 10SM BKN041 29/19 A2996
KSLG 
19nm SW 
251956Z AUTO 21010KT 10SM BKN040 A2995 RMK AO2 SLPNO FZRANO $
TAF
KROG 
5nm SE 
251730Z 2518/2618 22012KT P6SM SCT025 FM260000 VRB03KT P6SM SCT050 FM260400 33010KT P6SM VCSH BKN050 TEMPO 2604/2608 5SM -TSRA BKN025CB FM260800 36010KT P6SM VCSH OVC015 FM261200 01007KT P6SM BKN050
KXNA 
10nm SW 
251730Z 2518/2618 21012KT P6SM SCT025 FM260000 VRB03KT P6SM SCT050 FM260400 33010KT P6SM VCSH BKN050 TEMPO 2604/2608 5SM -TSRA BKN025CB FM260800 36010KT P6SM VCSH OVC015 FM261200 01007KT P6SM BKN050
NOTAMs
Click for the latest NOTAMs
NOTAMs are issued by the DoD/FAA and will open in a separate window not controlled by AirNav.

 

 
 

Would you like to see your business listed on this page?

 If your business provides an interesting product or service to pilots, flight crews, aircraft, or users of the Price Coffee Airfield, you should consider listing it here.  To start the listing process, click on the button below
 
Add a business
 

Other Pages about Price Coffee Airfield

Update a link
 
Copyright © AirNav, LLC. All rights reserved. Privacy Policy  Contact